User: anonymous   Login
Location: Catenanuova
(37.5690°N, 14.6870°E)
Time: 09:54:34
(UTC+02:00)
Language:

BlueWalker 3 - Orbit

View from above orbital plane
View from above orbital plane
View from above satellite
View from above satellite

Ground track
Ground track

The orbit data is extracted from the following two-line orbital elements,

1 53807U 22111AL  24164.41617100  .00007430  00000-0  29652-3 0  9998
2 53807  53.2355 215.6101 0009652  79.9931 280.2158 15.26156805 97500
Epoch (UTC): 12 June 2024 09:59:17
Eccentricity: 0.0009652
inclination: 53.2355°
perigee height: 480 km
apogee height: 494 km
right ascension of ascending node: 215.6101°
argument of perigee: 79.9931°
revolutions per day: 15.26156805
mean anomaly at epoch: 280.2158°
orbit number at epoch: 9750

The dashed part of the orbit path shows where the satellite is in the earth's shadow,  

DLR